This demonstration page uses our WeatherBlox Daily Observations layout. Learn more.

Left ArrowRight Arrow

Hourly Observations for October 23, 2016

Temp ( °F °C ) Dew Point ( °F °C ) Humidity (%) Winds ( mph kmh ) Pressure ( in mb ) Visibility ( mi km ) Precip ( " mm )
12:53 am 00:53 Clear 64 17.8 46 7.8 52 52 SE 12 19 29.95 1014 10 16 0.00 0.00
1:53 am 01:53 Clear 62 16.7 45 7.2 54 54 SE 10 17 29.95 1014 10 16 0.00 0.00
2:53 am 02:53 Clear 60 15.6 45 7.2 58 58 SE 7 11 29.96 1015 10 16 0.00 0.00
3:53 am 03:53 Clear 60 15.6 45 7.2 58 58 SE 7 11 29.95 1014 10 16 0.00 0.00
4:53 am 04:53 Clear 59 15 45 7.2 60 60 ESE 6 9 29.95 1014 10 16 0.00 0.00
5:53 am 05:53 Clear 56 13.3 44 6.7 65 65 ESE 6 9 29.95 1014 10 16 0.00 0.00
6:53 am 06:53 Clear 56 13.3 44 6.7 65 65 SE 5 7 29.97 1015 10 16 0.00 0.00
7:53 am 07:53 Clear 55 12.8 44 6.7 67 67 SE 6 9 30.00 1016 10 16 0.00 0.00
8:53 am 08:53 Sunny 56 13.3 45 7.2 67 67 SE 8 13 30.01 1016 10 16 0.00 0.00
9:53 am 09:53 Sunny 64 17.8 46 7.8 52 52 SE 12 19 30.02 1017 10 16 0.00 0.00
10:53 am 10:53 Sunny 71 21.7 47 8.3 42 42 SE 6 9 30.03 1017 10 16 0.00 0.00
11:53 am 11:53 Sunny 76 24.4 48 8.9 37 37 undefined N/A 30.01 1016 10 16 0.00 0.00
12:53 pm 12:53 Sunny 82 27.8 49 9.4 32 32 SW 7 11 29.99 1016 10 16 0.00 0.00
1:53 pm 13:53 Sunny 85 29.4 48 8.9 28 28 W 7 11 29.96 1015 10 16 0.00 0.00
2:53 pm 14:53 Sunny 86 30 42 5.6 21 21 VRB 7 11 29.94 1014 10 16 0.00 0.00
3:53 pm 15:53 Sunny 89 31.7 42 5.6 19 19 S 12 19 29.92 1013 10 16 0.00 0.00
4:53 pm 16:53 Sunny 88 31.1 42 5.6 20 20 S 8 13 29.92 1013 10 16 0.00 0.00
5:53 pm 17:53 Sunny 87 30.6 43 6.1 21 21 Calm 29.93 1013 10 16 0.00 0.00
6:53 pm 18:53 Sunny 83 28.3 44 6.7 25 25 SSE 6 9 29.94 1014 10 16 0.00 0.00
7:53 pm 19:53 Clear 76 24.4 44 6.7 32 32 SE 9 15 29.96 1015 10 16 0.00 0.00
8:53 pm 20:53 Clear 76 24.4 51 10.6 42 42 SSE 13 20 29.99 1016 10 16 0.00 0.00
9:53 pm 21:53 Clear 72 22.2 53 11.7 52 52 SE 12 19 30.01 1016 10 16 0.00 0.00
10:53 pm 22:53 Clear 69 20.6 53 11.7 57 57 SE 13 20 30.02 1017 10 16 0.00 0.00
11:53 pm 23:53 Clear 66 18.9 52 11.1 61 61 SE 13 20 30.03 1017 10 16 0.00 0.00

Powered by AerisWeather